THOR AGENA D R/B, 1245

Orbit data source: Space-Track

THOR AGENA D R/B, 1245 is space debris in LEO originally from a launch on Tue, 09 Mar 1965 UTC launched from the Air Force Western Test Range (AFWTR). Debris objects in space refer to the collection of defunct objects orbiting the Earth. Examples of debris include non-operational satellites, rocket bodies, and fragments generated from explosions, collisions, or faulty payload assembly.

Loading next visibility...
THOR AGENA D R/B details
Identifier
1245, 1965-016J
Orbit
LEO
Last TLE update1 day ago
Origin
Flag of USUSAF SSD (US)
ManufacturerLMSC
MissionSpacecraft
Bus & MotorAGENA D, Unknown motor
Mass600 kg wet, 600 kg dry
Launch date (UTC)
1965-03-09 (60 years ago)
Launch vehicleUnknown
Launch site
Air Force Western Test Range (AFWTR)
Object type
Payload
Rocket body
Debris
Shape & HBRCyl + 1 Nozzle, 6.3 m
Radar Cross Section8.306 m², Large (>1 m²)

Expand to show TLE details & history

TLE from 1 day ago
0 THOR AGENA D R/B
1 01245U 65016J   25043.47003817  .00000104  00000-0  11092-3 0  9995
2 01245  70.0770  70.8025 0022700 327.3794  32.5909 13.97515006 51879
Epoch: 2025-02-12T11:16Z
Definitive object data (Epoch: 2025-02-12T11:16:51.297Z)
Latitude-0.00007°
Longitude118.82869°
Altitude890.817 km
Speed7.414 km/s
True Right ascension04h 43m 12s
True Declination0° 00' 00"
Sunlit
Object was in daylight at TLE epoch
Visualization TLE readout
Latitude34.35508°
Longitude130.6368°
Altitude900.917 km
Speed7.408 km/s
Apparent Right ascension05h 30m 55s
Apparent Declination0° 05' 14"
Sunlit
Object is in full shadow
Visualization observer readout
Local Sidereal Time17:31:30
Azimuth0.23° NNE
Elevation-49.997°
Doppler factor1
Orbital elements
Apogee altitude916.969 km
Perigee altitude883.924 km
Semi-major axis7,278.584 km
Eccentricity0.00227
Inclination70.077°
RAAN70.8025°
Arg. of periapsis327.3794°
True anomaly32.73135°
Mean anomaly32.5909°
Eccentric anomaly32.66109°
Mean motion3.49521 °/min
BSTAR0.00011092
Orbital period103 mins
Loading maneuver chart data...
Loading historical data...
Loading historical data...
Loading historical data...
Loading historical data...
Loading historical data...
Loading historical data...
Loading historical data...

THOR AGENA D R/B Visibility forecast

Observer location: undefined°, undefined

Span
Click to sort rows by Start time (UTC) header in descending order
Start Az.
Max El. time (UTC)
Max El. Az.
Max El.
End time (UTC)
End Az.
10 mins2025-02-14 02:55:24.114Z200.456° SSW2025-02-14 02:59:24.114Z165.585° S44.815°2025-02-14 03:05:24.114Z25.401° NE
6 mins2025-02-14 04:43:24.114Z284.56° WNW2025-02-14 04:45:24.114Z306.824° NW15.87°2025-02-14 04:49:24.114Z350.023° N
10 mins2025-02-14 11:56:24.114Z349.963° N2025-02-14 12:01:24.114Z71.449° E36.846°2025-02-14 12:06:24.114Z133.579° SE
7 mins2025-02-14 13:43:24.114Z295.005° NW2025-02-14 13:46:24.114Z254.499° W22.922°2025-02-14 13:50:24.114Z208.516° SW
|